When you browse on this site, cookies collect data to enhance your experience and personalize the content and advertising you see.
Visit our Privacy Policy to learn more. By continuing to use the site, you agree to this use of cookies and data.
  • In Austria
  • List of Countries
  • For 7 days
  • Water Temperature
  • Satellite Maps
  • Weather Map
  • News
  • Weather Widgets
  • user-avatar
    Login

    Hourly Weather Kabare

    Today, 17 February, Sunday

    Time Temperature Precipitation Wind Pressure Humidity
    00:00 +16°C° 0.1 mm 1 mps 624 mmHg 83%
    01:00 +16°C° 0.1 mm 1 mps 623 mmHg 84%
    02:00 +15°C° 0 mm 1 mps 623 mmHg 84%
    03:00 +15°C° 0.1 mm 1 mps 623 mmHg 84%
    04:00 +15°C° 0.1 mm 1 mps 623 mmHg 85%
    05:00 +15°C° 0.1 mm 1 mps 623 mmHg 85%
    06:00 +16°C° 0 mm 0 mps 624 mmHg 78%
    07:00 +19°C° 0 mm 0 mps 625 mmHg 70%
    08:00 +21°C° 0 mm 0 mps 626 mmHg 60%
    09:00 +26°C° 0.2 mm 1 mps 626 mmHg 54%
    10:00 +28°C° 0.2 mm 1 mps 627 mmHg 49%
    11:00 +30°C° 0.2 mm 1 mps 627 mmHg 43%
    12:00 +30°C° 0.3 mm 1 mps 626 mmHg 44%
    13:00 +30°C° 0.3 mm 1 mps 626 mmHg 45%
    14:00 +30°C° 0.3 mm 2 mps 625 mmHg 46%
    15:00 +28°C° 0.6 mm 2 mps 624 mmHg 51%
    16:00 +27°C° 0.6 mm 1 mps 624 mmHg 57%
    17:00 +25°C° 0.6 mm 1 mps 623 mmHg 62%
    18:00 +23°C° 0.4 mm 1 mps 623 mmHg 68%
    19:00 +22°C° 0.4 mm 1 mps 623 mmHg 73%
    20:00 +20°C° 0.4 mm 1 mps 623 mmHg 79%
    21:00 +19°C° 0 mm 1 mps 623 mmHg 80%
    22:00 +19°C° 0 mm 1 mps 623 mmHg 81%
    23:00 +18°C° 0 mm 1 mps 623 mmHg 83%

    Tomorrow, 18 February, Monday

    Time Temperature Precipitation Wind Pressure Humidity
    00:00 +18°C° 0 mm 1 mps 623 mmHg 83%
    01:00 +16°C° 0 mm 1 mps 623 mmHg 83%
    02:00 +15°C° 0 mm 0 mps 622 mmHg 83%
    03:00 +16°C° 0 mm 1 mps 622 mmHg 83%
    04:00 +16°C° 0 mm 1 mps 622 mmHg 83%
    05:00 +15°C° 0 mm 1 mps 622 mmHg 83%
    06:00 +18°C° 0 mm 1 mps 623 mmHg 76%
    07:00 +20°C° 0 mm 1 mps 624 mmHg 70%
    08:00 +22°C° 0 mm 1 mps 624 mmHg 63%
    09:00 +25°C° 0 mm 1 mps 625 mmHg 54%
    10:00 +27°C° 0 mm 2 mps 625 mmHg 46%
    11:00 +29°C° 0 mm 2 mps 626 mmHg 37%
    12:00 +29°C° 0.2 mm 2 mps 625 mmHg 43%
    13:00 +28°C° 0.2 mm 2 mps 624 mmHg 48%
    14:00 +27°C° 0.2 mm 2 mps 623 mmHg 54%
    15:00 +26°C° 0.6 mm 2 mps 623 mmHg 57%
    16:00 +25°C° 0.6 mm 1 mps 622 mmHg 61%
    17:00 +25°C° 0.6 mm 1 mps 622 mmHg 64%
    18:00 +23°C° 0.7 mm 1 mps 622 mmHg 70%
    19:00 +21°C° 0.7 mm 1 mps 622 mmHg 75%
    20:00 +20°C° 0.7 mm 1 mps 622 mmHg 80%
    21:00 +19°C° 0.2 mm 1 mps 622 mmHg 82%
    22:00 +19°C° 0.2 mm 1 mps 623 mmHg 84%
    23:00 +18°C° 0.2 mm 1 mps 623 mmHg 86%

    Day after tomorrow, 19 February, Tuesday

    Time Temperature Precipitation Wind Pressure Humidity
    00:00 +18°C° 0.1 mm 1 mps 622 mmHg 87%
    01:00 +15°C° 0.1 mm 0 mps 622 mmHg 88%
    02:00 +15°C° 0.1 mm 0 mps 622 mmHg 89%
    03:00 +15°C° 0 mm 0 mps 621 mmHg 90%
    04:00 +15°C° 0 mm 0 mps 621 mmHg 90%
    05:00 +14°C° 0 mm 0 mps 621 mmHg 90%
    06:00 +16°C° 0 mm 0 mps 622 mmHg 83%
    07:00 +18°C° 0 mm 0 mps 623 mmHg 76%
    08:00 +20°C° 0 mm 0 mps 624 mmHg 68%
    09:00 +25°C° 0.1 mm 1 mps 625 mmHg 58%
    10:00 +27°C° 0.1 mm 1 mps 625 mmHg 48%
    11:00 +30°C° 0.1 mm 2 mps 626 mmHg 38%
    12:00 +29°C° 0.2 mm 2 mps 625 mmHg 40%
    13:00 +29°C° 0.2 mm 2 mps 624 mmHg 42%
    14:00 +28°C° 0.2 mm 2 mps 623 mmHg 44%
    15:00 +27°C° 0.3 mm 2 mps 623 mmHg 48%
    16:00 +26°C° 0.3 mm 2 mps 622 mmHg 52%
    17:00 +25°C° 0.3 mm 2 mps 622 mmHg 56%
    18:00 +24°C° 0.1 mm 2 mps 622 mmHg 62%
    19:00 +22°C° 0.1 mm 1 mps 622 mmHg 69%
    20:00 +20°C° 0.1 mm 1 mps 622 mmHg 75%
    21:00 +19°C° 0 mm 1 mps 622 mmHg 77%
    22:00 +18°C° 0 mm 1 mps 622 mmHg 79%
    23:00 +18°C° 0 mm 1 mps 623 mmHg 81%

    20 February, Wednesday

    Time Temperature Precipitation Wind Pressure Humidity
    00:00 +16°C° 0 mm 1 mps 622 mmHg 81%
    01:00 +15°C° 0 mm 0 mps 622 mmHg 80%
    02:00 +14°C° 0 mm 0 mps 621 mmHg 80%
    03:00 +14°C° 0 mm 0 mps 621 mmHg 79%
    04:00 +14°C° 0 mm 0 mps 621 mmHg 78%
    05:00 +14°C° 0 mm 0 mps 621 mmHg 77%
    06:00 +16°C° 0 mm 0 mps 622 mmHg 70%
    07:00 +19°C° 0 mm 1 mps 623 mmHg 63%
    08:00 +21°C° 0 mm 1 mps 624 mmHg 56%
    09:00 +24°C° 0 mm 1 mps 625 mmHg 48%
    10:00 +26°C° 0 mm 1 mps 625 mmHg 41%
    11:00 +29°C° 0 mm 1 mps 626 mmHg 33%
    12:00 +29°C° 0 mm 2 mps 625 mmHg 33%
    13:00 +29°C° 0 mm 2 mps 625 mmHg 32%
    14:00 +30°C° 0 mm 2 mps 624 mmHg 32%
    15:00 +28°C° 0 mm 2 mps 623 mmHg 37%
    16:00 +27°C° 0 mm 1 mps 623 mmHg 42%
    17:00 +26°C° 0 mm 1 mps 623 mmHg 47%
    18:00 +24°C° 0 mm 1 mps 623 mmHg 52%
    19:00 +22°C° 0 mm 1 mps 623 mmHg 57%
    20:00 +18°C° 0 mm 0 mps 624 mmHg 63%
    21:00 +20°C° 0 mm 1 mps 624 mmHg 65%
    22:00 +19°C° 0 mm 1 mps 624 mmHg 67%
    23:00 +18°C° 0 mm 1 mps 624 mmHg 70%

    21 February, Thursday

    Time Temperature Precipitation Wind Pressure Humidity
    00:00 +18°C° 0 mm 1 mps 623 mmHg 71%
    01:00 +16°C° 0 mm 1 mps 622 mmHg 72%
    02:00 +16°C° 0 mm 1 mps 622 mmHg 73%
    03:00 +16°C° 0 mm 1 mps 622 mmHg 73%
    04:00 +16°C° 0 mm 1 mps 622 mmHg 73%
    05:00 +16°C° 0 mm 1 mps 622 mmHg 73%
    06:00 +18°C° 0 mm 1 mps 623 mmHg 67%
    07:00 +20°C° 0 mm 1 mps 624 mmHg 61%
    08:00 +21°C° 0 mm 1 mps 625 mmHg 55%
    09:00 +24°C° 0 mm 1 mps 626 mmHg 49%
    10:00 +26°C° 0 mm 2 mps 626 mmHg 44%
    11:00 +28°C° 0 mm 2 mps 627 mmHg 39%
    12:00 +28°C° 0.1 mm 2 mps 626 mmHg 41%
    13:00 +28°C° 0.1 mm 2 mps 625 mmHg 43%
    14:00 +29°C° 0.1 mm 2 mps 624 mmHg 44%
    15:00 +27°C° 0.6 mm 1 mps 624 mmHg 50%
    16:00 +26°C° 0.6 mm 1 mps 623 mmHg 56%
    17:00 +25°C° 0.6 mm 1 mps 623 mmHg 62%
    18:00 +23°C° 0.2 mm 1 mps 623 mmHg 67%
    19:00 +21°C° 0.2 mm 1 mps 623 mmHg 73%
    20:00 +19°C° 0.2 mm 1 mps 623 mmHg 79%
    21:00 +19°C° 0 mm 1 mps 623 mmHg 80%
    22:00 +19°C° 0 mm 1 mps 623 mmHg 81%
    23:00 +18°C° 0 mm 1 mps 623 mmHg 82%

    22 February, Friday

    Time Temperature Precipitation Wind Pressure Humidity
    00:00 +18°C° 0 mm 1 mps 623 mmHg 83%
    01:00 +16°C° 0 mm 1 mps 622 mmHg 84%
    02:00 +15°C° 0 mm 0 mps 622 mmHg 85%
    03:00 +16°C° 0 mm 1 mps 622 mmHg 86%
    04:00 +16°C° 0 mm 1 mps 622 mmHg 87%
    05:00 +15°C° 0 mm 1 mps 622 mmHg 87%
    06:00 +18°C° 0 mm 1 mps 623 mmHg 79%
    07:00 +20°C° 0 mm 1 mps 624 mmHg 72%
    08:00 +22°C° 0 mm 1 mps 625 mmHg 64%
    09:00 +24°C° 0.1 mm 1 mps 625 mmHg 56%
    10:00 +27°C° 0.1 mm 1 mps 626 mmHg 48%
    11:00 +30°C° 0.1 mm 1 mps 626 mmHg 41%
    12:00 +29°C° 0.3 mm 1 mps 625 mmHg 43%
    13:00 +29°C° 0.3 mm 1 mps 624 mmHg 46%
    14:00 +29°C° 0.3 mm 1 mps 623 mmHg 49%
    15:00 +27°C° 0.5 mm 1 mps 623 mmHg 53%
    16:00 +26°C° 0.5 mm 1 mps 623 mmHg 57%
    17:00 +25°C° 0.5 mm 1 mps 623 mmHg 60%
    18:00 +23°C° 0.4 mm 1 mps 623 mmHg 67%
    19:00 +19°C° 0.4 mm 0 mps 623 mmHg 74%
    20:00 +17°C° 0.4 mm 0 mps 623 mmHg 80%
    21:00 +16°C° 0.1 mm 0 mps 623 mmHg 82%
    22:00 +16°C° 0.1 mm 0 mps 623 mmHg 83%
    23:00 +15°C° 0.1 mm 0 mps 623 mmHg 84%
    Show more